User: anonymous   Login
Location: Cheching
(60.0667°N, 164.2167°W)
Time: 13:02:55
(UTC+00:00)
Language:

BEESAT - Orbit

View from above orbital plane
View from above orbital plane
View from above satellite
View from above satellite

Ground track
Ground track

The orbit data is extracted from the following two-line orbital elements,

1 35933U 09051C   21015.47519363  .00000101  00000-0  33719-4 0  9994
2 35933  98.6044 212.4634 0005314 200.3410 159.7576 14.56541825600761
Epoch (UTC): 15 January 2021 11:24:16
Eccentricity: 0.0005314
inclination: 98.6044°
perigee height: 700 km
apogee height: 708 km
right ascension of ascending node: 212.4634°
argument of perigee: 200.3410°
revolutions per day: 14.56541825
mean anomaly at epoch: 159.7576°
orbit number at epoch: 60076

The dashed part of the orbit path shows where the satellite is in the earth's shadow,  

DLR